EXACTVIEW 9 (40936 NORAD) Tracking and Keplerian Element Data

This shows tracking and keplerian element data for the satellite.

Feedback or suggestion? Click here.




ElementValue
Catalog40936
NameEXACTVIEW 9
Epoch Orbit44734
Epoch Day6.07845669
Epoch Year2024
RAAN75.6655
Inclination6.0026
Eccentricity0.0010627
Argument of Perigee288.6842
Mean Anonmoly71.2132
Mean Motion14.7962084
Decay Rate2.815E-05
L11 40936U 15052G 24006.07845669 .00002815 00000+0 28083-3 0 9991
L22 40936 6.0026 75.6655 0010627 288.6842 71.2132 14.79620840447345



Live tracking and technical data element details for EXACTVIEW 9 (NORAD 40936). EXACTVIEW 9 can be tracked NOW for your location showing map with azimuth and elevation plus other details from your city location.







IsCatalogInMostPopularTable: catalog: 40936, numindb: 330
Update: records affected: 1



GetName: 40936 EXACTVIEW 9

Hit Count: updated at: Sat, 07 Mar 2026 06:25:42 GMT